• In Italy
  • List of Countries
  • For 7 days
  • Water Temperature
  • Satellite Maps
  • Weather Map
  • Weather Widgets
  • user-avatar
    Login

    Hourly Weather Djaipur

    Today, 17 January, Wednesday

    Time Temperature Precipitation Wind Pressure Humidity
    00:00 +14°C° 0 mm 2 mps 724 mmHg 36%
    01:00 +13°C° 0 mm 2 mps 724 mmHg 38%
    02:00 +12°C° 0 mm 1 mps 724 mmHg 41%
    03:00 +12°C° 0 mm 1 mps 724 mmHg 41%
    04:00 +12°C° 0 mm 1 mps 724 mmHg 41%
    05:00 +10°C° 0 mm 2 mps 723 mmHg 41%
    06:00 +13°C° 0 mm 2 mps 724 mmHg 39%
    07:00 +14°C° 0 mm 2 mps 725 mmHg 38%
    08:00 +15°C° 0 mm 2 mps 726 mmHg 36%
    09:00 +17°C° 0 mm 2 mps 726 mmHg 32%
    10:00 +20°C° 0 mm 2 mps 726 mmHg 29%
    11:00 +25°C° 0 mm 2 mps 726 mmHg 26%
    12:00 +26°C° 0 mm 2 mps 726 mmHg 26%
    13:00 +27°C° 0 mm 2 mps 725 mmHg 27%
    14:00 +27°C° 0 mm 2 mps 725 mmHg 27%
    15:00 +26°C° 0 mm 2 mps 725 mmHg 31%
    16:00 +25°C° 0 mm 2 mps 725 mmHg 35%
    17:00 +23°C° 0 mm 2 mps 725 mmHg 40%
    18:00 +21°C° 0 mm 2 mps 725 mmHg 43%
    19:00 +19°C° 0 mm 2 mps 725 mmHg 47%
    20:00 +17°C° 0 mm 2 mps 726 mmHg 51%
    21:00 +17°C° 0 mm 2 mps 726 mmHg 53%
    22:00 +16°C° 0 mm 1 mps 726 mmHg 55%
    23:00 +15°C° 0 mm 1 mps 726 mmHg 57%

    Tomorrow, 18 January, Thursday

    Time Temperature Precipitation Wind Pressure Humidity
    00:00 +14°C° 0 mm 1 mps 726 mmHg 58%
    01:00 +14°C° 0 mm 1 mps 726 mmHg 59%
    02:00 +14°C° 0 mm 1 mps 726 mmHg 60%
    03:00 +13°C° 0 mm 1 mps 726 mmHg 62%
    04:00 +13°C° 0 mm 1 mps 725 mmHg 63%
    05:00 +13°C° 0 mm 1 mps 725 mmHg 65%
    06:00 +14°C° 0 mm 1 mps 726 mmHg 60%
    07:00 +15°C° 0 mm 1 mps 727 mmHg 56%
    08:00 +18°C° 0 mm 1 mps 727 mmHg 51%
    09:00 +20°C° 0 mm 1 mps 728 mmHg 44%
    10:00 +23°C° 0 mm 1 mps 728 mmHg 37%
    11:00 +25°C° 0 mm 1 mps 728 mmHg 31%
    12:00 +26°C° 0 mm 1 mps 728 mmHg 29%
    13:00 +27°C° 0 mm 1 mps 727 mmHg 27%
    14:00 +28°C° 0 mm 1 mps 726 mmHg 25%
    15:00 +26°C° 0 mm 1 mps 726 mmHg 28%
    16:00 +25°C° 0 mm 1 mps 726 mmHg 32%
    17:00 +24°C° 0 mm 1 mps 726 mmHg 36%
    18:00 +22°C° 0 mm 1 mps 726 mmHg 41%
    19:00 +20°C° 0 mm 1 mps 726 mmHg 46%
    20:00 +16°C° 0 mm 1 mps 727 mmHg 50%
    21:00 +16°C° 0 mm 1 mps 727 mmHg 51%
    22:00 +16°C° 0 mm 1 mps 727 mmHg 51%
    23:00 +16°C° 0 mm 1 mps 727 mmHg 51%

    Day after tomorrow, 19 January, Friday

    Time Temperature Precipitation Wind Pressure Humidity
    00:00 +15°C° 0 mm 2 mps 727 mmHg 53%
    01:00 +15°C° 0 mm 2 mps 727 mmHg 55%
    02:00 +15°C° 0 mm 2 mps 727 mmHg 57%
    03:00 +14°C° 0 mm 2 mps 726 mmHg 59%
    04:00 +14°C° 0 mm 2 mps 726 mmHg 60%
    05:00 +13°C° 0 mm 2 mps 726 mmHg 61%
    06:00 +14°C° 0 mm 2 mps 727 mmHg 58%
    07:00 +16°C° 0 mm 1 mps 727 mmHg 55%
    08:00 +18°C° 0 mm 1 mps 728 mmHg 51%
    09:00 +20°C° 0 mm 1 mps 728 mmHg 44%
    10:00 +23°C° 0 mm 1 mps 729 mmHg 37%
    11:00 +25°C° 0 mm 1 mps 729 mmHg 29%
    12:00 +26°C° 0 mm 1 mps 728 mmHg 27%
    13:00 +27°C° 0 mm 2 mps 728 mmHg 24%
    14:00 +28°C° 0 mm 2 mps 727 mmHg 21%
    15:00 +26°C° 0 mm 2 mps 727 mmHg 23%
    16:00 +25°C° 0 mm 2 mps 727 mmHg 26%
    17:00 +24°C° 0 mm 2 mps 726 mmHg 29%
    18:00 +21°C° 0 mm 2 mps 727 mmHg 30%
    19:00 +19°C° 0 mm 2 mps 727 mmHg 32%
    20:00 +17°C° 0 mm 2 mps 728 mmHg 33%
    21:00 +17°C° 0 mm 3 mps 728 mmHg 34%
    22:00 +16°C° 0 mm 3 mps 728 mmHg 34%
    23:00 +14°C° 0 mm 3 mps 727 mmHg 35%

    20 January, Saturday

    Time Temperature Precipitation Wind Pressure Humidity
    00:00 +15°C° 0 mm 2 mps 727 mmHg 35%
    01:00 +14°C° 0 mm 2 mps 727 mmHg 36%
    02:00 +14°C° 0 mm 2 mps 726 mmHg 36%
    03:00 +13°C° 0 mm 2 mps 726 mmHg 35%
    04:00 +13°C° 0 mm 2 mps 726 mmHg 35%
    05:00 +13°C° 0 mm 2 mps 726 mmHg 34%
    06:00 +13°C° 0 mm 2 mps 726 mmHg 33%
    07:00 +14°C° 0 mm 2 mps 727 mmHg 31%
    08:00 +15°C° 0 mm 2 mps 727 mmHg 29%
    09:00 +18°C° 0 mm 2 mps 728 mmHg 24%
    10:00 +21°C° 0 mm 2 mps 728 mmHg 19%
    11:00 +24°C° 0 mm 3 mps 728 mmHg 13%
    12:00 +25°C° 0 mm 3 mps 727 mmHg 12%
    13:00 +26°C° 0 mm 3 mps 726 mmHg 11%
    14:00 +27°C° 0 mm 3 mps 726 mmHg 10%
    15:00 +26°C° 0 mm 3 mps 725 mmHg 12%
    16:00 +24°C° 0 mm 3 mps 725 mmHg 14%
    17:00 +22°C° 0 mm 3 mps 725 mmHg 16%
    18:00 +20°C° 0 mm 3 mps 725 mmHg 16%
    19:00 +18°C° 0 mm 3 mps 725 mmHg 15%
    20:00 +16°C° 0 mm 3 mps 725 mmHg 15%
    21:00 +15°C° 0 mm 2 mps 725 mmHg 16%
    22:00 +14°C° 0 mm 2 mps 725 mmHg 16%
    23:00 +13°C° 0 mm 2 mps 725 mmHg 16%

    21 January, Sunday

    Time Temperature Precipitation Wind Pressure Humidity
    00:00 +12°C° 0 mm 2 mps 725 mmHg 16%
    01:00 +12°C° 0 mm 2 mps 724 mmHg 17%
    02:00 +12°C° 0 mm 2 mps 724 mmHg 17%
    03:00 +10°C° 0 mm 2 mps 724 mmHg 18%
    04:00 +11°C° 0 mm 1 mps 724 mmHg 19%
    05:00 +10°C° 0 mm 1 mps 724 mmHg 20%
    06:00 +12°C° 0 mm 1 mps 724 mmHg 22%
    07:00 +13°C° 0 mm 1 mps 725 mmHg 24%
    08:00 +15°C° 0 mm 1 mps 726 mmHg 26%
    09:00 +19°C° 0 mm 1 mps 726 mmHg 21%
    10:00 +21°C° 0 mm 1 mps 726 mmHg 15%
    11:00 +24°C° 0 mm 1 mps 726 mmHg 10%
    12:00 +25°C° 0 mm 1 mps 726 mmHg 10%
    13:00 +26°C° 0 mm 2 mps 725 mmHg 9%
    14:00 +27°C° 0 mm 2 mps 724 mmHg 9%
    15:00 +25°C° 0 mm 2 mps 724 mmHg 13%
    16:00 +23°C° 0 mm 1 mps 724 mmHg 16%
    17:00 +22°C° 0 mm 1 mps 723 mmHg 20%
    18:00 +20°C° 0 mm 1 mps 724 mmHg 19%
    19:00 +16°C° 0 mm 1 mps 724 mmHg 19%
    20:00 +14°C° 0 mm 1 mps 724 mmHg 18%
    21:00 +14°C° 0 mm 2 mps 724 mmHg 20%
    22:00 +14°C° 0 mm 2 mps 724 mmHg 22%
    23:00 +13°C° 0 mm 2 mps 724 mmHg 24%

    22 January, Monday

    Time Temperature Precipitation Wind Pressure Humidity
    00:00 +13°C° 0 mm 2 mps 724 mmHg 26%
    01:00 +12°C° 0 mm 2 mps 723 mmHg 29%
    02:00 +12°C° 0 mm 1 mps 723 mmHg 32%
    03:00 +11°C° 0 mm 1 mps 723 mmHg 33%
    04:00 +11°C° 0 mm 1 mps 723 mmHg 34%
    05:00 +11°C° 0 mm 1 mps 723 mmHg 35%
    06:00 +12°C° 0 mm 1 mps 723 mmHg 34%
    07:00 +14°C° 0 mm 1 mps 724 mmHg 32%
    08:00 +15°C° 0 mm 1 mps 725 mmHg 31%
    09:00 +18°C° 0 mm 2 mps 725 mmHg 26%
    10:00 +21°C° 0 mm 2 mps 725 mmHg 22%
    11:00 +24°C° 0 mm 2 mps 725 mmHg 17%
    12:00 +25°C° 0 mm 3 mps 724 mmHg 18%
    13:00 +26°C° 0 mm 3 mps 723 mmHg 18%
    14:00 +27°C° 0 mm 3 mps 723 mmHg 19%
    15:00 +26°C° 0 mm 3 mps 722 mmHg 23%
    16:00 +25°C° 0 mm 3 mps 722 mmHg 26%
    17:00 +24°C° 0 mm 2 mps 722 mmHg 30%
    18:00 +21°C° 0 mm 3 mps 722 mmHg 31%
    19:00 +20°C° 0 mm 3 mps 722 mmHg 32%
    20:00 +19°C° 0 mm 3 mps 722 mmHg 34%
    21:00 +18°C° 0 mm 3 mps 722 mmHg 35%
    22:00 +17°C° 0 mm 3 mps 722 mmHg 36%
    23:00 +16°C° 0 mm 3 mps 722 mmHg 37%
    Show more